Content
SEND FEEDBACK

Daily
Averages
Monthly
Summary
Mexico

CANCUN, QUINTANA ROO


Home > North America > Mexico > Quintana Roo
Elevation: 9 meters     Latitude: 21 09N     Longitude: 086 49W

WEATHER
 
SELECT A DAY
Number of Records: 167,736;   Date Range: 1/1/95 - 12/17/14
 
SHARE

PRINT THIS DATA

[ ← Previous Day ]
WEATHER ALMANAC - 14 MAY, 2013
[ Next Day → ]
[ °F ]   °C
Weather ElementAverageHighLow
Temperature27 °C30 °C (10:45 am)25 °C (3:46 am)
Dewpoint21.5 °C23 °C (8:43 am)20 °C (9:44 pm)
Humidity72.2 %83 % (3:46 am)58 % (12:44 pm)
Barometer1018.6 hPa1020.3 hPa (10:45 am)1017.3 hPa (3:46 am)
Wind Speed11.6 km/h20.4 km/h (2:43 pm)
Weather ElementAverage
Visibility11.3 km
Wind DirectionENE (53.5 °)

Weather ElementTotal
Precipitation---
Cooling Degree Days9.2 (Base 18.3)
Growing Degree Days17.5 (Base 10)
Averaged from 23 records on 14 May, 2013
WEATHER CONDITIONS BREAKOUT
WIND DIRECTION BREAKOUT
WEATHER BY HOUR - 14 MAY, 2013
[ °F ]   °C
Local TimeTemperatureDewpointHumidityBarometerVisibilityWind DirectionWind SpeedGust SpeedPrecipitationEventsConditions
1:44 AM26 °C22 °C78 %1018.3 hPa11.3 kmNNE (30°)9.3 km/hClear
2:43 AM26 °C22 °C78 %1017.9 hPa11.3 kmENE (60°)9.3 km/hClear
3:46 AM25 °C22 °C83 %1017.3 hPa11.3 kmNE (50°)9.3 km/hPartly Cloudy
4:45 AM25 °C22 °C83 %1018.3 hPa11.3 kmNE (40°)9.3 km/hScattered Clouds
5:44 AM25 °C22 °C83 %1018.3 hPa11.3 kmENE (60°)9.3 km/hScattered Clouds
6:43 AM26 °C22 °C78 %1018.3 hPa11.3 kmNNE (20°)9.3 km/hScattered Clouds
7:42 AM27 °C22 °C74 %1019.3 hPa11.3 kmNE (50°)9.3 km/hScattered Clouds
8:43 AM28 °C23 °C74 %1019.6 hPa11.3 kmENE (60°)14.8 km/hMostly Cloudy
9:41 AM29 °C22 °C66 %1020 hPa11.3 kmNE (40°)14.8 km/hMostly Cloudy
10:45 AM30 °C22 °C62 %1020.3 hPa11.3 kmENE (60°)16.7 km/hMostly Cloudy
11:40 AM29 °C22 °C66 %1020 hPa11.3 kmENE (60°)13 km/hMostly Cloudy
12:44 PM30 °C21 °C58 %1019.3 hPa11.3 kmEast (80°)18.5 km/hMostly Cloudy
1:40 PM29 °C22 °C66 %1019 hPa11.3 kmENE (60°)13 km/hMostly Cloudy
2:43 PM29 °C21 °C62 %1018.3 hPa11.3 kmNNE (30°)20.4 km/hMostly Cloudy
3:41 PM29 °C21 °C62 %1017.9 hPa11.3 kmESE (110°)20.4 km/hMostly Cloudy
4:49 PM28 °C21 °C66 %1017.9 hPa11.3 kmENE (70°)20.4 km/hMostly Cloudy
5:42 PM27 °C21 °C70 %1017.9 hPa11.3 kmNNE (20°)9.3 km/hMostly Cloudy
6:41 PM27 °C21 °C70 %1018.3 hPa11.3 kmEast (80°)7.4 km/hScattered Clouds
7:40 PM26 °C21 °C74 %1018.3 hPa11.3 kmNE (50°)7.4 km/hPartly Cloudy
8:44 PM25 °C21 °C78 %1018.6 hPa11.3 kmENE (70°)7.4 km/hPartly Cloudy
9:44 PM25 °C20 °C74 %1018.6 hPa11.3 kmNE (40°)7.4 km/hPartly Cloudy
10:44 PM25 °C21 °C78 %1019.3 hPa11.3 kmNE (50°)5.6 km/hScattered Clouds
11:44 PM25 °C21 °C78 %1019.6 hPa11.3 kmNE (40°)5.6 km/hScattered Clouds
Hourly data recorded from MMUN, located 0 kilometers away from Cancun, Quintana Roo







STORIES FROM OUR PARTNERS